DW3823 Weather Reports


Display with metric or nautical units.
time (UTC)temp
F
wind
direction
speed
MPH
gust
MPH
rain 1hr
in
rain 24hr
in
rain mn
in
humidity
%
barometer
mb
20260510000517 68 214 0.0 1.0 0.00 0.00 0.00 64 1011.2
20260510000017 69 214 0.0 1.0 0.00 0.00 0.00 63 1011.2
20260509235517 70 214 0.0 2.0 0.00 0.00 0.00 62 1011.1
20260509235016 70 214 0.0 2.0 0.00 0.00 0.00 59 1011.0
20260509234529 71 250 0.0 2.0 0.00 0.00 0.00 58 1011.1
20260509234017 71 250 0.0 4.0 0.00 0.00 0.00 58 1011.0
20260509233515 71 243 1.0 4.0 0.00 0.00 0.00 55 1010.9
20260509233015 71 243 1.0 4.0 0.00 0.00 0.00 54 1010.9
20260509232515 72 323 1.0 4.0 0.00 0.00 0.00 52 1010.9
20260509232019 73 232 1.0 4.0 0.00 0.00 0.00 56 1011.2
20260509231517 73 241 1.0 4.0 0.00 0.00 0.00 56 1011.0
20260509231014 73 247 0.0 4.0 0.00 0.00 0.00 56 1011.2
20260509230514 73 36 1.0 4.0 0.00 0.00 0.00 55 1011.0
20260509230015 73 248 1.0 3.0 0.00 0.00 0.00 56 1011.0
20260509225515 73 293 0.0 4.0 0.00 0.00 0.00 56 1010.9
20260509225013 73 200 1.0 4.0 0.00 0.00 0.00 53 1011.1
20260509224527 73 283 1.0 3.0 0.00 0.00 0.00 56 1011.0
20260509224013 73 218 2.0 3.0 0.00 0.00 0.00 51 1011.0
20260509223515 74 188 1.0 4.0 0.00 0.00 0.00 50 1010.9
20260509223012 74 251 1.0 7.0 0.00 0.00 0.00 52 1011.0
20260509222512 74 257 3.0 7.0 0.00 0.00 0.00 52 1010.9
20260509222012 75 282 3.0 7.0 0.00 0.00 0.00 52 1010.8
20260509221513 74 240 1.0 4.0 0.00 0.00 0.00 54 1010.8
20260509221012 74 229 1.0 3.0 0.00 0.00 0.00 53 1010.7
20260509220515 72 345 1.0 4.0 0.00 0.00 0.00 58 1010.6
20260509220011 72 255 0.0 4.0 0.00 0.00 0.00 59 1010.8
20260509215512 73 339 1.0 9.0 0.00 0.00 0.00 55 1010.7
20260509215009 74 188 1.0 4.0 0.00 0.00 0.00 56 1010.5
20260509214510 73 261 0.0 3.0 0.00 0.00 0.00 57 1010.8
20260509214010 72 261 0.0 4.0 0.00 0.00 0.00 62 1010.7
20260509213510 71 159 1.0 2.0 0.00 0.00 0.00 59 1010.9
20260509213010 71 250 0.0 4.0 0.00 0.00 0.00 58 1010.9
20260509212509 72 249 2.0 4.0 0.00 0.00 0.00 58 1011.1
20260509212009 73 221 1.0 6.0 0.00 0.00 0.00 58 1010.8
20260509211509 74 221 2.0 9.0 0.00 0.00 0.00 56 1010.7
20260509211009 74 232 4.0 9.0 0.00 0.00 0.00 55 1010.8
20260509210509 74 261 3.0 8.0 0.00 0.00 0.00 54 1010.8
20260509210009 74 269 2.0 8.0 0.00 0.00 0.00 54 1010.7
20260509205508 75 257 2.0 7.0 0.00 0.00 0.00 56 1010.6
20260509205008 75 293 1.0 7.0 0.00 0.00 0.00 54 1010.6
20260509204508 75 295 1.0 7.0 0.00 0.00 0.00 54 1010.6
20260509204007 76 285 2.0 9.0 0.00 0.00 0.00 54 1010.6
20260509203506 75 165 3.0 9.0 0.00 0.00 0.00 55 1010.6
20260509203007 75 124 1.0 6.0 0.00 0.00 0.00 59 1010.5
20260509202504 74 181 2.0 4.0 0.00 0.00 0.00 63 1010.7
20260509202006 72 185 1.0 8.0 0.00 0.00 0.00 62 1010.7
20260509201504 73 152 2.0 8.0 0.00 0.00 0.00 60 1010.7
20260509201003 73 268 1.0 4.0 0.00 0.00 0.00 63 1010.6
20260509200503 73 294 1.0 5.0 0.00 0.00 0.00 60 1010.7
20260509200003 72 229 0.0 5.0 0.00 0.00 0.00 65 1011.0
20260509195504 71 257 2.0 5.0 0.00 0.00 0.00 62 1011.0
20260509195103 71 292 1.0 2.0 0.00 0.00 0.00 63 1010.9
20260509194601 72 272 0.0 8.0 0.00 0.00 0.00 62 1011.1
20260509194100 74 161 4.0 8.0 0.00 0.00 0.00 59 1011.0
20260509193559 73 51 2.0 5.0 0.00 0.00 0.00 64 1011.1
20260509193058 72 243 1.0 7.0 0.00 0.00 0.00 61 1011.2
20260509192558 73 286 2.0 9.0 0.00 0.00 0.00 59 1011.5
20260509192058 74 279 2.0 8.0 0.00 0.00 0.00 59 1011.3
20260509191557 74 234 2.0 8.0 0.00 0.00 0.00 60 1011.3
20260509191055 73 296 3.0 10.0 0.00 0.00 0.00 61 1011.3
20260509190556 71 263 4.0 10.0 0.00 0.00 0.00 62 1011.2
20260509190056 71 143 2.0 8.0 0.00 0.00 0.00 66 1011.2
20260509185555 72 171 3.0 8.0 0.00 0.00 0.00 63 1011.2
20260509185054 71 240 1.0 6.0 0.00 0.00 0.00 62 1011.2
20260509184554 71 211 2.0 6.0 0.00 0.00 0.00 62 1011.2
20260509184055 73 187 1.0 4.0 0.00 0.00 0.00 63 1011.2
20260509183555 71 148 2.0 8.0 0.00 0.00 0.00 62 1011.2
20260509183053 72 221 4.0 8.0 0.00 0.00 0.00 65 1011.1
20260509182552 71 166 3.0 7.0 0.00 0.00 0.00 62 1010.9
20260509182051 71 269 2.0 7.0 0.00 0.00 0.00 68 1010.9
20260509181607 71 292 2.0 8.0 0.00 0.00 0.00 63 1010.9
20260509181050 71 262 1.0 8.0 0.00 0.00 0.00 64 1010.8
20260509180549 71 238 2.0 4.0 0.00 0.00 0.00 69 1010.8
20260509180111 70 128 1.0 7.0 0.00 0.00 0.00 66 1010.8
20260509175552 71 242 4.0 8.0 0.00 0.00 0.00 63 1010.8
20260509175052 70 225 1.0 8.0 0.00 0.00 0.00 68 1010.8
20260509174548 69 236 1.0 8.0 0.00 0.00 0.00 67 1010.9
20260509174048 71 313 3.0 8.0 0.00 0.00 0.00 63 1010.9
20260509173547 71 134 3.0 7.0 0.00 0.00 0.00 66 1010.9
20260509173101 71 294 2.0 10.0 0.00 0.00 0.00 67 1011.0
20260509172546 70 247 2.0 10.0 0.00 0.00 0.00 67 1011.0
20260509172046 70 273 1.0 12.0 0.00 0.00 0.00 67 1011.0
20260509171551 70 117 1.0 12.0 0.00 0.00 0.00 66 1011.2
20260509171044 70 275 2.0 6.0 0.00 0.00 0.00 68 1011.2
20260509170544 69 163 3.0 7.0 0.00 0.00 0.00 68 1011.4
20260509170051 69 30 2.0 8.0 0.00 0.00 0.00 66 1011.3
20260509165543 69 255 3.0 8.0 0.00 0.00 0.00 69 1011.4
20260509165041 68 267 2.0 8.0 0.00 0.00 0.00 69 1011.4
20260509164541 69 256 1.0 5.0 0.00 0.00 0.00 65 1011.5
20260509164040 68 234 2.0 7.0 0.00 0.00 0.00 68 1011.5
20260509163539 68 322 3.0 7.0 0.00 0.00 0.00 71 1011.5
20260509163037 68 227 3.0 8.0 0.00 0.00 0.00 70 1011.4
20260509162537 67 167 3.0 11.0 0.00 0.00 0.00 69 1011.5
20260509162037 66 215 2.0 9.0 0.00 0.00 0.00 74 1011.5
20260509161542 67 272 4.0 9.0 0.00 0.00 0.00 71 1011.6
20260509161034 66 186 1.0 5.0 0.00 0.00 0.00 72 1011.5
20260509160537 65 169 1.0 10.0 0.00 0.00 0.00 75 1011.7
20260509160035 65 163 4.0 10.0 0.00 0.00 0.00 75 1011.7
20260509155532 65 266 2.0 5.0 0.00 0.00 0.00 77 1011.6
20260509155032 65 265 2.0 5.0 0.00 0.00 0.00 75 1011.5
20260509154531 65 234 3.0 5.0 0.00 0.00 0.00 75 1011.5
20260509154031 65 183 1.0 5.0 0.00 0.00 0.00 76 1011.5
20260509153529 65 193 3.0 8.0 0.00 0.00 0.00 76 1011.4
20260509153031 64 156 3.0 8.0 0.00 0.00 0.00 77 1011.4
20260509152527 63 161 1.0 8.0 0.00 0.00 0.00 78 1011.3
20260509152027 63 165 4.0 8.0 0.00 0.00 0.00 76 1011.4
20260509151526 63 174 2.0 6.0 0.00 0.00 0.00 77 1011.4
20260509151026 63 181 0.0 6.0 0.00 0.00 0.00 77 1011.2
20260509150529 63 197 2.0 5.0 0.00 0.00 0.00 76 1011.2
20260509150026 63 267 2.0 8.0 0.00 0.00 0.00 77 1011.1
20260509145526 63 180 3.0 8.0 0.00 0.00 0.00 76 1011.0
20260509145024 63 224 1.0 6.0 0.00 0.00 0.00 79 1011.0
20260509144523 62 161 2.0 6.0 0.00 0.00 0.00 78 1010.9
20260509144023 62 157 3.0 6.0 0.00 0.00 0.00 78 1010.9
20260509143523 62 169 2.0 11.0 0.00 0.00 0.00 78 1010.8
20260509143024 62 157 3.0 11.0 0.00 0.00 0.00 78 1010.9
20260509142522 62 273 2.0 8.0 0.00 0.00 0.00 78 1010.9
20260509142021 61 202 2.0 7.0 0.00 0.00 0.00 79 1011.0
20260509141536 61 165 2.0 8.0 0.00 0.00 0.00 78 1011.0
20260509141020 61 248 2.0 8.0 0.00 0.00 0.00 79 1010.9
20260509140519 61 257 2.0 8.0 0.00 0.00 0.00 80 1010.8
20260509140018 60 233 1.0 6.0 0.00 0.00 0.00 80 1010.8
20260509135520 60 236 3.0 6.0 0.00 0.00 0.00 80 1010.7
20260509135016 60 143 2.0 5.0 0.00 0.00 0.00 80 1010.7
20260509134527 60 289 2.0 7.0 0.00 0.00 0.00 80 1010.7
20260509134014 60 146 4.0 7.0 0.00 0.00 0.00 81 1010.8
20260509133514 59 169 2.0 7.0 0.00 0.00 0.00 81 1010.7
20260509133013 59 163 2.0 7.0 0.00 0.00 0.00 81 1010.7
20260509132516 58 145 2.0 7.0 0.00 0.00 0.00 81 1010.9
20260509132012 59 175 2.0 7.0 0.00 0.00 0.00 81 1010.8
20260509131511 58 128 3.0 6.0 0.00 0.00 0.00 81 1011.0
20260509131011 58 290 2.0 6.0 0.00 0.00 0.00 81 1010.8
20260509130511 58 169 3.0 8.0 0.00 0.00 0.00 81 1010.8
20260509130011 58 251 2.0 8.0 0.00 0.00 0.00 80 1010.8
20260509125515 58 228 3.0 10.0 0.00 0.00 0.00 80 1010.8
20260509125010 58 232 3.0 10.0 0.00 0.00 0.00 80 1010.8
20260509124514 59 11 2.0 7.0 0.00 0.00 0.00 80 1010.8
20260509124009 58 244 3.0 7.0 0.00 0.00 0.00 80 1010.8
20260509123508 58 184 2.0 10.0 0.00 0.00 0.00 80 1010.7
20260509123013 58 156 2.0 10.0 0.00 0.00 0.00 80 1010.6
20260509122506 58 149 2.0 8.0 0.00 0.00 0.00 80 1010.6
20260509122006 57 208 2.0 7.0 0.00 0.00 0.00 81 1010.5
20260509121503 56 187 3.0 8.0 0.00 0.00 0.00 81 1010.4
20260509121002 56 182 3.0 7.0 0.00 0.00 0.00 81 1010.3
20260509120501 56 135 1.0 6.0 0.00 0.00 0.00 81 1010.5
20260509115500 55 161 1.0 8.0 0.00 0.00 0.00 80 1010.3
20260509115059 55 209 2.0 8.0 0.00 0.00 0.00 80 1010.2
20260509114559 55 209 1.0 5.0 0.00 0.00 0.00 80 1010.4
20260509114101 55 176 2.0 5.0 0.00 0.00 0.00 80 1010.4
20260509113600 55 183 1.0 6.0 0.00 0.00 0.00 80 1010.4
20260509113058 54 192 1.0 3.0 0.00 0.00 0.00 80 1010.3
20260509112557 54 192 1.0 4.0 0.00 0.00 0.00 80 1010.3
20260509112056 54 173 2.0 4.0 0.00 0.00 0.00 80 1010.6
20260509111558 54 185 0.0 4.0 0.00 0.00 0.00 79 1010.6
20260509111054 54 180 1.0 4.0 0.00 0.00 0.00 79 1010.4
20260509110552 54 186 0.0 2.0 0.00 0.00 0.00 79 1010.4
20260509110052 54 174 0.0 4.0 0.00 0.00 0.00 79 1010.4
20260509105552 54 172 1.0 4.0 0.00 0.00 0.00 78 1010.4
20260509105050 54 170 0.0 3.0 0.00 0.00 0.00 78 1010.5
20260509104606 55 163 0.0 3.0 0.00 0.00 0.00 78 1010.4
20260509104055 55 178 1.0 6.0 0.00 0.00 0.00 78 1010.6
20260509103549 55 178 1.0 6.0 0.00 0.00 0.00 78 1010.4
20260509103100 55 175 0.0 3.0 0.00 0.00 0.00 78 1010.5
20260509102549 55 180 0.0 6.0 0.00 0.00 0.00 77 1010.6
20260509102049 55 179 0.0 6.0 0.00 0.00 0.00 77 1010.6
20260509101548 55 189 0.0 3.0 0.00 0.00 0.00 77 1010.5
20260509101048 55 188 0.0 3.0 0.00 0.00 0.00 77 1010.5
20260509100548 55 182 1.0 3.0 0.00 0.00 0.00 77 1010.6
20260509100048 55 180 1.0 3.0 0.00 0.00 0.00 78 1010.6
20260509095548 55 181 1.0 3.0 0.00 0.00 0.00 77 1010.6
20260509095047 55 186 0.0 3.0 0.00 0.00 0.00 77 1010.6
20260509094548 55 186 0.0 5.0 0.00 0.00 0.00 77 1010.7
20260509094046 55 183 1.0 5.0 0.00 0.00 0.00 77 1010.8
20260509093549 55 168 0.0 3.0 0.00 0.00 0.00 77 1010.6
20260509093046 55 175 0.0 3.0 0.00 0.00 0.00 77 1010.8
20260509092546 55 184 1.0 3.0 0.00 0.00 0.00 78 1011.0
20260509092047 55 180 1.0 3.0 0.00 0.00 0.00 78 1011.1
20260509091547 55 176 0.0 3.0 0.00 0.00 0.00 78 1010.8
20260509091046 55 177 1.0 3.0 0.00 0.00 0.00 77 1010.7
20260509090547 55 178 0.0 2.0 0.00 0.00 0.00 78 1010.6
20260509090053 55 178 0.0 2.0 0.00 0.00 0.00 77 1010.6
20260509085545 54 178 0.0 2.0 0.00 0.00 0.00 77 1011.0
20260509085044 55 178 0.0 3.0 0.00 0.00 0.00 77 1010.9
20260509084545 55 178 0.0 3.0 0.00 0.00 0.00 77 1010.9
20260509084044 54 180 0.0 3.0 0.00 0.00 0.00 77 1010.9
20260509083543 54 172 1.0 3.0 0.00 0.00 0.00 77 1010.8
20260509083044 54 189 0.0 3.0 0.00 0.00 0.00 77 1010.7
20260509082543 54 165 0.0 3.0 0.00 0.00 0.00 77 1010.6
20260509082043 54 201 0.0 3.0 0.00 0.00 0.00 77 1010.8
20260509081551 54 201 0.0 5.0 0.00 0.00 0.00 77 1010.6
20260509081043 54 204 0.0 5.0 0.00 0.00 0.00 77 1010.6
20260509080542 54 148 0.0 4.0 0.00 0.00 0.00 77 1010.4
20260509080043 54 225 1.0 3.0 0.00 0.00 0.00 77 1010.4
20260509075542 54 174 1.0 3.0 0.00 0.00 0.00 77 1010.3
20260509075043 54 163 0.0 4.0 0.00 0.00 0.00 77 1010.4
20260509074541 54 188 1.0 4.0 0.00 0.00 0.00 78 1010.6
20260509074041 54 184 0.0 3.0 0.00 0.00 0.00 78 1010.5
20260509073540 53 185 0.0 4.0 0.00 0.00 0.00 78 1010.4
20260509073139 53 176 1.0 4.0 0.00 0.00 0.00 79 1010.6
20260509072538 52 161 0.0 2.0 0.00 0.00 0.00 79 1010.6
20260509072038 52 161 0.0 1.0 0.00 0.00 0.00 78 1010.9
20260509071548 53 161 0.0 3.0 0.00 0.00 0.00 78 1011.0
20260509071038 53 161 0.0 4.0 0.00 0.00 0.00 78 1010.9
20260509070541 53 153 0.0 2.0 0.00 0.00 0.00 77 1010.9
20260509070043 53 153 0.0 2.0 0.00 0.00 0.00 77 1010.9
20260509065537 53 157 0.0 2.0 0.00 0.00 0.00 77 1010.7
20260509065036 53 157 0.0 2.0 0.00 0.00 0.00 77 1010.8
20260509064536 53 157 0.0 2.0 0.00 0.00 0.00 77 1010.8
20260509064035 53 157 0.0 1.0 0.00 0.00 0.00 77 1011.1
20260509063536 53 157 0.0 2.0 0.00 0.00 0.00 77 1011.2
20260509063056 53 157 0.0 2.0 0.00 0.00 0.00 77 1011.1
20260509062534 52 157 0.0 1.0 0.00 0.00 0.00 77 1011.2
20260509062033 52 157 0.0 1.0 0.00 0.00 0.00 77 1011.2
20260509061557 52 157 0.0 3.0 0.00 0.00 0.00 76 1011.1
20260509061033 52 164 0.0 1.0 0.00 0.00 0.00 77 1011.2
20260509060535 52 165 0.0 1.0 0.00 0.00 0.00 76 1011.3
20260509060049 53 165 0.0 2.0 0.00 0.00 0.00 75 1011.3
20260509055531 53 165 0.0 2.0 0.00 0.00 0.00 76 1011.5
20260509055029 53 164 0.0 1.0 0.00 0.00 0.00 75 1011.7
20260509054528 53 164 0.0 1.0 0.00 0.00 0.00 74 1011.8
20260509054026 54 164 0.0 2.0 0.00 0.00 0.00 72 1011.9
20260509053525 55 164 0.0 5.0 0.00 0.00 0.00 70 1011.8
20260509053025 55 161 0.0 5.0 0.00 0.00 0.00 70 1011.9
20260509052523 56 144 0.0 5.0 0.00 0.00 0.00 70 1011.8
20260509052023 56 180 2.0 5.0 0.00 0.00 0.00 70 1011.7
20260509051523 56 193 0.0 3.0 0.00 0.00 0.00 69 1011.7
20260509051023 56 193 1.0 3.0 0.00 0.00 0.00 69 1011.7
20260509050522 56 181 0.0 2.0 0.00 0.00 0.00 69 1011.8
20260509050021 56 181 0.0 2.0 0.00 0.00 0.00 68 1011.8
20260509045520 56 181 0.0 4.0 0.00 0.00 0.00 68 1011.8
20260509045020 57 180 0.0 4.0 0.00 0.00 0.00 67 1011.7
20260509044523 57 190 0.0 5.0 0.00 0.00 0.00 67 1011.6
20260509044019 57 206 1.0 5.0 0.00 0.00 0.00 66 1011.7
20260509043517 57 173 1.0 4.0 0.00 0.00 0.00 66 1011.9
20260509043017 57 205 1.0 5.0 0.00 0.00 0.00 66 1011.9
20260509042519 57 205 1.0 3.0 0.00 0.00 0.00 66 1011.9
20260509042019 57 171 1.0 3.0 0.00 0.00 0.00 65 1012.1
20260509041517 57 175 0.0 4.0 0.00 0.00 0.00 64 1012.2
20260509041017 58 172 1.0 4.0 0.00 0.00 0.00 63 1012.3
20260509040518 58 184 1.0 4.0 0.00 0.00 0.00 62 1012.2
20260509040016 58 220 1.0 5.0 0.00 0.00 0.00 62 1012.3
20260509035516 58 178 2.0 5.0 0.00 0.00 0.00 62 1012.2
20260509035016 58 181 0.0 5.0 0.00 0.00 0.00 62 1012.3
20260509034515 58 266 2.0 5.0 0.00 0.00 0.00 62 1012.3
20260509034015 58 178 0.0 3.0 0.00 0.00 0.00 61 1012.3
20260509033519 58 188 0.0 4.0 0.00 0.00 0.00 61 1012.3
20260509033017 59 196 1.0 4.0 0.00 0.00 0.00 60 1012.3
20260509032516 58 186 0.0 2.0 0.00 0.00 0.00 61 1012.4
20260509032019 59 186 0.0 3.0 0.00 0.00 0.00 61 1012.5
20260509031514 59 186 0.0 3.0 0.00 0.00 0.00 61 1012.5
20260509031014 59 190 1.0 3.0 0.00 0.00 0.00 61 1012.5
20260509030515 58 176 0.0 4.0 0.00 0.00 0.00 61 1012.5
20260509030014 58 165 1.0 4.0 0.00 0.00 0.00 62 1012.4
20260509025513 59 161 1.0 3.0 0.00 0.00 0.00 62 1012.5
20260509025017 59 169 0.0 3.0 0.00 0.00 0.00 63 1012.4
20260509024516 58 167 1.0 2.0 0.00 0.00 0.00 63 1012.7
20260509024014 57 167 0.0 2.0 0.00 0.00 0.00 66 1012.6
20260509023513 58 167 0.0 2.0 0.00 0.00 0.00 66 1012.6
20260509023013 57 169 0.0 2.0 0.00 0.00 0.00 67 1012.6
20260509022512 57 169 0.0 0.0 0.00 0.00 0.00 67 1012.5
20260509022014 58 169 0.0 1.0 0.00 0.00 0.00 67 1012.5
20260509021513 58 169 0.0 1.0 0.00 0.00 0.00 66 1012.6
20260509021013 58 169 0.0 1.0 0.00 0.00 0.00 66 1012.5
20260509020512 58 169 0.0 2.0 0.00 0.00 0.00 64 1012.4
20260509020023 60 169 0.0 2.0 0.00 0.00 0.00 62 1012.4
20260509015513 59 169 0.0 2.0 0.00 0.00 0.00 62 1012.4
20260509015013 59 169 0.0 1.0 0.00 0.00 0.00 63 1012.4
20260509014532 57 169 0.0 1.0 0.00 0.00 0.00 66 1012.3
20260509014011 58 169 0.0 1.0 0.00 0.00 0.00 65 1012.3
20260509013511 58 169 0.0 1.0 0.00 0.00 0.00 63 1012.2
20260509013011 59 169 0.0 2.0 0.00 0.00 0.00 64 1012.1
20260509012511 59 169 0.0 3.0 0.00 0.00 0.00 63 1012.1
20260509012011 58 181 0.0 0.0 0.00 0.00 0.00 64 1012.2
20260509011511 58 181 0.0 0.0 0.00 0.00 0.00 63 1012.0
20260509011010 59 181 0.0 0.0 0.00 0.00 0.00 62 1012.1
20260509010516 58 181 0.0 0.0 0.00 0.00 0.00 63 1012.1
20260509010009 59 181 0.0 0.0 0.00 0.00 0.00 63 1012.1
20260509005510 59 181 0.0 0.0 0.00 0.00 0.00 62 1012.1
20260509005012 59 181 0.0 0.0 0.00 0.00 0.00 59 1012.0
20260509004515 60 181 0.0 0.0 0.00 0.00 0.00 57 1012.0
20260509004008 60 181 0.0 0.0 0.00 0.00 0.00 56 1012.1
20260509003512 61 181 0.0 0.0 0.00 0.00 0.00 54 1012.0
20260509003020 61 181 0.0 0.0 0.00 0.00 0.00 56 1011.9
20260509002507 62 181 0.0 0.0 0.00 0.00 0.00 54 1011.9
20260509002007 63 181 0.0 0.0 0.00 0.00 0.00 52 1011.9
20260509001507 64 181 0.0 2.0 0.00 0.00 0.00 47 1012.1
20260509001007 66 181 0.0 3.0 0.00 0.00 0.00 44 1012.4